Weather History for KABR - December, 2013

Change the Weather History Date:

Wednesday, December 18, 2013

  Actual Average Record
Temperature  
Mean Temperature 28 °F 15 °F  
Max Temperature 42 °F 25 °F 58 °F (1979)
Min Temperature 14 °F 5 °F -28 °F (1951)
Degree Days  
Heating Degree Days 37 50  
Month to date heating degree days 1017 857  
Since 1 July heating degree days 3008 2820  
Cooling Degree Days 0 0  
Month to date cooling degree days 0 0  
Year to date cooling degree days 580 525  
Moisture  
Dew Point 20 °F    
Average Humidity 73    
Maximum Humidity 88    
Minimum Humidity 57    
Precipitation  
Precipitation 0.00 in 0.02 in 0.20 in (1937)
Month to date precipitation 0.45 0.30  
Year to date precipitation 21.47 21.50  
Snow  
Snow 0.00 in - - ()
Month to date snowfall 5.5  
Since 1 July snowfall 8.8  
Snow Depth 2.00 in    
Sea Level Pressure  
Sea Level Pressure 29.78 in    
Wind  
Wind Speed 11 mph (SW)    
Max Wind Speed 26 mph    
Max Gust Speed 33 mph    
Visibility 10 miles    
Events      
T = Trace of Precipitation, MM = Missing Value Source: NWS Daily Summary

Daily Weather History Graph

Daily Weather History Graph

Search for Another Location

Airport or City:

Trip Planner

Search our weather history database for the weather conditions in past years. The results will help you decide how hot, cold, wet, or windy it might be!

Date:

Astronomy

Dec. 18, 2013 Rise Set
Actual Time 8:08 AM CST 4:51 PM CST
Civil Twilight 7:34 AM CST 5:26 PM CST
Nautical Twilight 6:57 AM CST 6:03 PM CST
Astronomical Twilight 6:21 AM CST 6:39 PM CST
Moon 6:29 PM CST (12/18) 8:45 AM CST (12/18)
Length of Visible Light 9h 51m
Length of Day
8h 43m
Full, 98% of the Moon is Illuminated
Dec 18
Full
Dec 25
Last Quarter
Jan 1
New
Jan 7
First Quarter
Jan 15
Full

Hourly Weather History & Observations

Time (CST) Temp. Windchill Dew Point Humidity Pressure Visibility Wind Dir Wind Speed Gust Speed Precip Events Conditions
12:53 AM 19.9 °F 7.3 °F 14.0 °F 78% 29.85 in 10.0 mi South 12.7 mph - N/A   Clear
1:53 AM 21.9 °F 9.2 °F 14.0 °F 72% 29.80 in 10.0 mi South 13.8 mph - N/A   Clear
2:53 AM 21.0 °F 8.1 °F 14.0 °F 74% 29.78 in 10.0 mi South 13.8 mph - N/A   Clear
3:53 AM 19.9 °F 8.6 °F 14.0 °F 78% 29.77 in 10.0 mi SSW 10.4 mph - N/A   Clear
4:53 AM 17.1 °F 7.6 °F 12.0 °F 81% 29.76 in 10.0 mi SSW 6.9 mph - N/A   Clear
5:53 AM 16.0 °F 4.4 °F 12.0 °F 84% 29.73 in 10.0 mi SSW 9.2 mph - N/A   Clear
6:53 AM 16.0 °F 5.3 °F 12.0 °F 84% 29.71 in 10.0 mi SSW 8.1 mph - N/A   Clear
7:53 AM 17.1 °F 10.0 °F 14.0 °F 88% 29.71 in 10.0 mi South 4.6 mph - N/A   Clear
8:53 AM 15.1 °F 6.4 °F 12.0 °F 88% 29.71 in 10.0 mi SE 5.8 mph - N/A   Clear
9:53 AM 19.9 °F 10.1 °F 16.0 °F 85% 29.72 in 10.0 mi SSE 8.1 mph - N/A   Clear
10:51 AM 24.8 °F 17.9 °F 19.4 °F 80% 29.66 in 2.0 mi South 5.8 mph - N/A   Haze
10:53 AM 24.1 °F 18.2 °F 19.0 °F 81% 29.72 in 2.0 mi South 4.6 mph - N/A   Haze
11:00 AM 24.8 °F 19.1 °F 19.4 °F 80% 29.66 in 10.0 mi SSW 4.6 mph - N/A   Clear
11:53 AM 28.0 °F 21.7 °F 21.9 °F 78% 29.71 in 10.0 mi SSW 5.8 mph - N/A   Clear
12:53 PM 30.0 °F 22.4 °F 24.1 °F 79% 29.70 in 9.0 mi SSW 8.1 mph - N/A   Clear
1:53 PM 39.9 °F 33.9 °F 28.9 °F 65% 29.67 in 10.0 mi WSW 9.2 mph - N/A   Clear
2:53 PM 39.9 °F 34.5 °F 28.9 °F 65% 29.67 in 10.0 mi West 8.1 mph - N/A   Clear
3:53 PM 42.1 °F 34.2 °F 28.9 °F 60% 29.70 in 10.0 mi WNW 16.1 mph - N/A   Clear
4:53 PM 39.9 °F 32.9 °F 28.9 °F 65% 29.72 in 10.0 mi WNW 11.5 mph - N/A   Clear
5:53 PM 37.9 °F 30.9 °F 28.9 °F 70% 29.75 in 10.0 mi WNW 10.4 mph - N/A   Clear
6:53 PM 37.0 °F 28.9 °F 28.9 °F 73% 29.80 in 10.0 mi NW 12.7 mph - N/A   Clear
7:53 PM 33.1 °F 24.4 °F 26.1 °F 75% 29.84 in 10.0 mi North 11.5 mph - N/A   Clear
8:53 PM 28.0 °F 13.9 °F 23.0 °F 81% 29.90 in 10.0 mi North 23.0 mph 31.1 mph N/A   Clear
9:18 PM 26.6 °F 12.4 °F 21.2 °F 80% 29.85 in 10.0 mi North 21.9 mph 29.9 mph N/A   Mostly Cloudy
9:53 PM 26.1 °F 12.3 °F 21.0 °F 81% 29.94 in 10.0 mi NNE 19.6 mph 26.5 mph N/A   Overcast
10:53 PM 21.9 °F 7.3 °F 18.0 °F 85% 29.96 in 10.0 mi NNE 18.4 mph - N/A   Scattered Clouds
11:14 PM 21.2 °F 7.8 °F 17.6 °F 86% 29.92 in 10.0 mi North 15.0 mph - N/A   Mostly Cloudy
11:38 PM 21.2 °F 6.0 °F 15.8 °F 80% 29.93 in 10.0 mi North 19.6 mph - N/A   Overcast
11:53 PM 19.9 °F 3.5 °F 15.1 °F 81% 29.99 in 10.0 mi North 21.9 mph 27.6 mph N/A   Overcast